User: anonymous
Location: Saint Peter Port
(49.4500°N, 2.5330°W)
Time: 10:03:12
(UTC+01:00)
Language:

Cosmos 2242 Rocket - Orbit

View from above orbital plane
View from above orbital plane
View from above satellite
View from above satellite

Ground track
Ground track

The orbit data is extracted from the following two-line orbital elements,

1 22627U 93024B   14210.47791837  .00000234  00000-0  29355-4 0  3846
2 22627 082.5242 358.3840 0024377 171.8726 247.1258 14.77634126146517
Epoch (UTC): 29 July 2014 11:28:12
Eccentricity: 0.0024377
inclination: 82.5242°
perigee height: 620 km
apogee height: 654 km
right ascension of ascending node: 358.3840°
argument of perigee: 171.8726°
revolutions per day: 14.77634126
mean anomaly at epoch: 247.1258°
orbit number at epoch: 14651

The dashed part of the orbit path shows where the satellite is in the earth's shadow,  

DLR